TimeCST,TemperatureF,Dew PointF,Humidity,Sea Level PressureIn,VisibilityMPH,Wind Direction,Wind SpeedMPH,Gust SpeedMPH,PrecipitationIn,Events,Conditions,WindDirDegrees,DateUTC
12:15 AM,42.8,41.0,93,29.80,7.0,WNW,10.4,16.1,0.02,Rain,Rain,290,2011-11-27 06:15:00
12:35 AM,42.8,41.0,93,29.81,10.0,WNW,12.7,19.6,0.04,Rain,Light Rain,290,2011-11-27 06:35:00
12:55 AM,42.8,41.0,93,29.80,10.0,WNW,13.8,18.4,0.04,,Drizzle,290,2011-11-27 06:55:00
1:15 AM,42.8,41.0,93,29.82,4.0,West,11.5,20.7,N/A,,Light Drizzle,280,2011-11-27 07:15:00
1:35 AM,42.8,41.0,93,29.83,7.0,West,12.7,-,N/A,Rain,Rain,280,2011-11-27 07:35:00
1:55 AM,42.8,41.0,93,29.82,7.0,WNW,11.5,17.3,N/A,,Drizzle,290,2011-11-27 07:55:00
2:15 AM,42.8,41.0,93,29.82,10.0,WNW,11.5,-,0.01,Rain,Rain,290,2011-11-27 08:15:00
2:35 AM,42.8,39.2,87,29.81,10.0,WNW,10.4,19.6,0.01,Rain,Rain,300,2011-11-27 08:35:00
2:55 AM,42.8,39.2,87,29.82,10.0,West,11.5,17.3,0.02,,Drizzle,280,2011-11-27 08:55:00
3:15 AM,42.8,41.0,93,29.83,10.0,West,11.5,17.3,N/A,,Overcast,280,2011-11-27 09:15:00
3:35 AM,42.8,41.0,93,29.83,10.0,WNW,11.5,18.4,N/A,,Overcast,290,2011-11-27 09:35:00
3:55 AM,42.8,41.0,93,29.84,10.0,West,10.4,-,N/A,,Overcast,280,2011-11-27 09:55:00
4:15 AM,42.8,41.0,93,29.85,10.0,West,10.4,-,N/A,,Overcast,280,2011-11-27 10:15:00
4:35 AM,42.8,41.0,93,29.86,10.0,WNW,9.2,-,N/A,,Overcast,290,2011-11-27 10:35:00
4:55 AM,42.8,41.0,93,29.83,10.0,WNW,11.5,21.9,N/A,,Overcast,290,2011-11-27 10:55:00
5:15 AM,42.8,41.0,93,29.84,10.0,WNW,11.5,20.7,N/A,,Overcast,300,2011-11-27 11:15:00
5:35 AM,42.8,41.0,93,29.86,10.0,WNW,9.2,20.7,N/A,,Overcast,300,2011-11-27 11:35:00
5:55 AM,42.8,39.2,87,29.85,10.0,NW,10.4,17.3,N/A,,Overcast,310,2011-11-27 11:55:00
6:15 AM,42.8,39.2,87,29.85,10.0,NW,9.2,16.1,N/A,,Light Drizzle,320,2011-11-27 12:15:00
6:35 AM,41.0,39.2,93,29.85,10.0,NW,11.5,18.4,N/A,Rain,Rain,320,2011-11-27 12:35:00
6:55 AM,41.0,39.2,93,29.88,10.0,NW,5.8,17.3,N/A,,Overcast,310,2011-11-27 12:55:00
7:15 AM,41.0,37.4,87,29.88,10.0,NW,11.5,16.1,N/A,,Light Drizzle,320,2011-11-27 13:15:00
7:35 AM,41.0,37.4,87,29.88,10.0,NW,11.5,18.4,N/A,Rain,Light Rain,320,2011-11-27 13:35:00
7:55 AM,41.0,37.4,87,29.90,10.0,NW,8.1,-,N/A,,Drizzle,310,2011-11-27 13:55:00
8:15 AM,41.0,37.4,87,29.91,10.0,NW,8.1,-,N/A,,Drizzle,320,2011-11-27 14:15:00
8:35 AM,41.0,37.4,87,29.91,5.0,WNW,11.5,16.1,N/A,Rain,Rain,300,2011-11-27 14:35:00
8:55 AM,41.0,37.4,87,29.92,2.5,WNW,11.5,18.4,N/A,,Drizzle,300,2011-11-27 14:55:00
9:15 AM,39.2,37.4,93,29.94,1.8,NW,11.5,19.6,N/A,,Light Drizzle,310,2011-11-27 15:15:00
9:35 AM,37.4,37.4,100,29.95,2.0,NW,11.5,16.1,N/A,,Light Drizzle,310,2011-11-27 15:35:00
9:55 AM,37.4,37.4,100,29.94,3.0,WNW,12.7,17.3,N/A,,Overcast,300,2011-11-27 15:55:00
10:15 AM,37.4,35.6,93,29.94,3.0,NW,13.8,18.4,N/A,,Light Drizzle,310,2011-11-27 16:15:00
10:35 AM,37.4,35.6,93,29.94,5.0,NW,13.8,19.6,N/A,,Light Drizzle,310,2011-11-27 16:35:00
10:55 AM,37.4,35.6,93,29.95,2.0,NW,12.7,18.4,N/A,,Overcast,310,2011-11-27 16:55:00
11:15 AM,37.4,35.6,93,29.95,4.0,NW,10.4,-,N/A,,Overcast,320,2011-11-27 17:15:00
11:35 AM,37.4,35.6,93,29.95,7.0,NW,9.2,-,N/A,,Overcast,310,2011-11-27 17:35:00
11:55 AM,37.4,35.6,93,29.96,7.0,NW,9.2,-,N/A,,Overcast,310,2011-11-27 17:55:00
12:15 PM,37.4,35.6,93,29.96,3.0,NW,8.1,-,N/A,,Overcast,310,2011-11-27 18:15:00
12:35 PM,37.4,35.6,93,29.96,2.5,NW,10.4,-,N/A,,Overcast,310,2011-11-27 18:35:00
12:55 PM,37.4,35.6,93,29.97,2.5,NW,8.1,-,N/A,,Light Drizzle,320,2011-11-27 18:55:00
1:15 PM,37.4,35.6,93,29.97,2.5,NNW,9.2,-,N/A,,Drizzle,330,2011-11-27 19:15:00
1:35 PM,37.4,35.6,93,29.98,2.0,NW,9.2,-,N/A,,Drizzle,320,2011-11-27 19:35:00
1:55 PM,37.4,35.6,93,29.97,2.5,NW,10.4,-,N/A,,Light Drizzle,320,2011-11-27 19:55:00
2:15 PM,37.4,35.6,93,29.99,10.0,NNW,9.2,-,N/A,,Overcast,330,2011-11-27 20:15:00
2:35 PM,37.4,35.6,93,29.98,10.0,NW,10.4,-,N/A,,Overcast,320,2011-11-27 20:35:00
2:55 PM,37.4,35.6,93,30.01,10.0,NW,10.4,-,N/A,,Overcast,320,2011-11-27 20:55:00
3:15 PM,37.4,35.6,93,30.02,10.0,NNW,10.4,-,N/A,,Overcast,330,2011-11-27 21:15:00
3:35 PM,37.4,33.8,87,30.02,10.0,NW,8.1,17.3,N/A,,Overcast,320,2011-11-27 21:35:00
3:55 PM,37.4,33.8,87,30.02,10.0,NNW,8.1,16.1,N/A,,Overcast,330,2011-11-27 21:55:00
4:15 PM,37.4,33.8,87,30.04,10.0,NW,10.4,-,N/A,,Overcast,320,2011-11-27 22:15:00
4:35 PM,35.6,33.8,93,30.05,10.0,NNW,9.2,16.1,N/A,,Overcast,330,2011-11-27 22:35:00
4:55 PM,35.6,33.8,93,30.06,10.0,NNW,8.1,16.1,N/A,,Overcast,330,2011-11-27 22:55:00
5:15 PM,35.6,33.8,93,30.06,10.0,NW,10.4,16.1,N/A,,Overcast,320,2011-11-27 23:15:00
5:35 PM,35.6,33.8,93,30.08,10.0,NW,6.9,16.1,N/A,,Overcast,320,2011-11-27 23:35:00
5:55 PM,35.6,32.0,87,30.07,10.0,NNW,8.1,-,N/A,,Overcast,330,2011-11-27 23:55:00
6:15 PM,35.6,32.0,87,30.07,10.0,NNW,9.2,17.3,N/A,,Overcast,330,2011-11-28 00:15:00
6:35 PM,35.6,32.0,87,30.09,10.0,NW,9.2,-,N/A,,Overcast,320,2011-11-28 00:35:00
6:55 PM,35.6,32.0,87,30.10,10.0,NW,6.9,-,N/A,,Overcast,320,2011-11-28 00:55:00
7:15 PM,35.6,32.0,87,30.10,10.0,NNW,5.8,-,N/A,,Overcast,330,2011-11-28 01:15:00
7:35 PM,35.6,32.0,87,30.10,10.0,NNW,8.1,-,N/A,,Overcast,340,2011-11-28 01:35:00
7:55 PM,35.6,32.0,87,30.10,10.0,NNW,10.4,-,N/A,,Overcast,340,2011-11-28 01:55:00
8:15 PM,35.6,32.0,87,30.10,10.0,NNW,6.9,-,N/A,,Overcast,330,2011-11-28 02:15:00
8:35 PM,35.6,32.0,87,30.09,10.0,NNW,9.2,-,N/A,,Overcast,340,2011-11-28 02:35:00
8:55 PM,35.6,32.0,87,30.10,10.0,NNW,8.1,-,N/A,,Overcast,330,2011-11-28 02:55:00
9:15 PM,35.6,32.0,87,30.11,10.0,NNW,10.4,-,N/A,,Overcast,330,2011-11-28 03:15:00
9:35 PM,35.6,32.0,87,30.11,10.0,NNW,11.5,16.1,N/A,,Overcast,340,2011-11-28 03:35:00
9:55 PM,35.6,32.0,87,30.12,10.0,NNW,6.9,-,N/A,,Overcast,340,2011-11-28 03:55:00
10:15 PM,35.6,32.0,87,30.11,10.0,NNW,8.1,-,N/A,,Overcast,340,2011-11-28 04:15:00
10:35 PM,35.6,30.2,81,30.11,10.0,NNW,8.1,17.3,N/A,,Overcast,340,2011-11-28 04:35:00
10:55 PM,35.6,32.0,87,30.12,10.0,NNW,6.9,16.1,N/A,,Overcast,330,2011-11-28 04:55:00
11:15 PM,35.6,30.2,81,30.10,10.0,NNW,9.2,-,N/A,,Overcast,330,2011-11-28 05:15:00
11:35 PM,35.6,30.2,81,30.11,10.0,NNW,8.1,-,N/A,,Overcast,330,2011-11-28 05:35:00
11:55 PM,35.6,30.2,81,30.12,10.0,NNW,8.1,-,N/A,,Overcast,340,2011-11-28 05:55:00